Regional Weather Roundup
Issued by NWS

Home | Current Version | Previous Version | Graphics & Text | Print | Product List | Glossary On
Versions: 1 2 3 4 5 6 7 8 9 10 11 12 13 14 15 16 17 18 19 20 21 22 23 24 25 26 27 28 29 30 31 32 33 34 35 36 37 38 39 40 41 42 43 44 45 46 47 48 49 50
293
ASUS44 KJAN 221610
RWRMS

MISSISSIPPI HOURLY WEATHER ROUNDUP
NATIONAL WEATHER SERVICE JACKSON MS
1100 AM CDT MON SEP 22 2014

NOTE: "FAIR: INDICATES FEW OR NO CLOUDS BELOW 12,000 FEET WITH NO
SIGNIFICANT WEATHER AND/OR OBSTRUCTIONS TO VISIBILITY.

MSZ001>002-007>008-010>013-018>021-025>028-034>036-221700-
NORTHWEST MISSISSIPPI

CITY           SKY/WX    TMP DP  RH WIND       PRES   REMARKS
CLARKSDALE     FAIR      73  54  49 N9        30.21S
CLEVELAND      FAIR      75  54  47 NE15      30.19R
GREENWOOD      SUNNY     76  55  48 NE10      30.17S
GREENVILLE     SUNNY     77  51  40 NE15      30.17S
GRENADA        FAIR      73  52  46 N7        30.19S
OLIVE BRANCH   MOSUNNY   68  55  64 N9        30.22S
OXFORD         FAIR      68  52  56 NE9       30.21S
TUNICA         SUNNY     72  54  53 N12       30.22F
$$

MSZ003>006-009-014>017-022>024-029>033-037>039-221700-
NORTHEAST MISSISSIPPI

CITY           SKY/WX    TMP DP  RH WIND       PRES   REMARKS
COLUMBUS AFB   SUNNY     75  52  43 N13       30.15S
CORINTH        FAIR      72  50  46 NE10      30.18F
GOLDN TRIANGLE SUNNY     73  55  53 N8        30.16S
STARKVILLE     FAIR      72  54  53 N12       30.16R
TUPELO         SUNNY     72  52  49 NE13      30.18R
$$

MSZ040-058-221700-
CENTRAL MISSISSIPPI

CITY           SKY/WX    TMP DP  RH WIND       PRES   REMARKS
JACKSON INTL   SUNNY     80  55  42 N9        30.13S
JACKSON HAWKNS SUNNY     79  56  45 N9        30.14R
MERIDIAN KEY   MOSUNNY   80  53  39 N15       30.11S
MERIDIAN NAS   MOSUNNY   80  52  37 NE13      30.12S
RAYMOND        FAIR      77  72  83 N3        30.14R
VICKSBURG      SUNNY     79  56  45 NE12G21   30.14F
$$

MSZ059>079-221700-
SOUTH MISSISSIPPI

CITY           SKY/WX    TMP DP  RH WIND       PRES   REMARKS
BROOKHAVEN     FAIR      79  61  53 N12       30.13R
COLUMBIA       FAIR      81  68  65 N8G16     30.07R
HATTIESBURG    SUNNY     82  69  64 NE9       30.07S
MCCOMB         SUNNY     80  64  58 N9        30.09S
NATCHEZ        CLOUDY    77  63  61 N9        30.13R
PINE BELT      SUNNY     81  63  54 NE14      30.11R
$$

MSZ080>082-221700-
COASTAL MISSISSIPPI

CITY           SKY/WX    TMP DP  RH WIND       PRES   REMARKS
BAY ST LOUIS   SUNNY     86  64  48 NW7       30.04F
BILOXI         SUNNY     85  69  57 VRB3      30.03F
PASCAGOULA     SUNNY     85  69  58 NE6       30.03F
GULFPORT       SUNNY     86  67  52 N5        30.03F
$$



USA.gov is the U.S. government's official web portal to all federal, state and local government web resources and services.